Weather observations for the past three days for
Dallas Love Field
Imperial (Metric)
Date Time (cdt) Wind (mph) Vis. (mi.) Weather Sky Cond. Temperature (ºF) Relative Humidity Wind Chill (°F) Heat Index (°F) Pressure Precipitation (in)
Air Dwpt 6 hour altimeter (in) sea level (mb) 1 hr 3 hr 6 hr
Max. Min.
15 19:53 SE 13 10.00 Mostly Cloudy FEW065 BKN250 89.1 66.9 48% 92 29.84 1009.6
15 18:53 SE 16 G 24 10.00 Partly Cloudy FEW065 SCT250 91 64.9 93.9 90 42% 93 29.83 1009.5
15 17:53 SE 16 G 21 10.00 A Few Clouds FEW060 FEW250 91.9 68 46% 96 29.83 1009.5
15 15:53 SE 12 G 21 10.00 Partly Cloudy SCT060 SCT250 93 68 44% 97 29.87 1010.5
15 14:53 SE 12 10.00 Partly Cloudy SCT055 SCT250 93 68 44% 97 29.88 1010.9
15 13:53 SE 13 G 17 10.00 Partly Cloudy SCT050 91.9 68 46% 96 29.89 1011.3
15 12:53 SW 9 G 17 10.00 Partly Cloudy SCT050 SCT250 90 68 91 75.9 48% 94 29.92 1012.4
15 11:53 Vrbl 6 10.00 Partly Cloudy SCT045 SCT250 89.1 70 53% 94 29.93 1012.8
15 10:53 Vrbl 6 10.00 Partly Cloudy SCT042 SCT250 88 69.1 54% 92 29.94 1013.1
15 09:53 SE 7 10.00 A Few Clouds FEW250 84.9 70 61% 89 29.95 1013.3
15 08:53 S 7 10.00 A Few Clouds FEW250 82 66.9 60% 85 29.96 1013.9
15 07:53 S 5 10.00 A Few Clouds FEW025 FEW250 80.1 68 67% 83 29.97 1014.0
15 06:53 E 3 10.00 A Few Clouds FEW250 75.9 68 82 75 77% 77 29.96 1013.9
15 05:53 E 5 10.00 A Few Clouds FEW250 75 68 79% 76 29.95 1013.5
15 04:53 E 3 10.00 Fair CLR 77 68 74% 79 29.94 1013.0
15 03:53 Calm 10.00 Fair CLR 79 66.9 67% 81 29.93 1012.5
15 02:53 SE 6 10.00 Fair CLR 81 66.9 62% 83 29.92 1012.5
15 01:53 SE 7 10.00 Fair CLR 82 66 58% 84 29.93 1012.7
15 00:53 SE 7 10.00 Fair CLR 82 66 93.9 82 58% 84 29.95 1013.2
14 23:53 SE 6 10.00 Fair CLR 82.9 64.9 55% 85 29.95 1013.5
14 22:53 SE 7 10.00 Fair CLR 84.9 64 50% 86 29.94 1013.2
14 21:53 SE 8 10.00 Fair CLR 86 62.1 45% 87 29.93 1012.6
14 20:53 E 8 10.00 Fair CLR 88 62.1 42% 88 29.91 1012.2
14 19:53 E 7 10.00 Fair CLR 91.9 62.1 37% 93 29.9 1011.7
14 18:53 E 8 10.00 Fair CLR 93.9 63 96.1 90 36% 95 29.89 1011.4
14 17:53 E 6 10.00 Fair CLR 95 64.9 37% 98 29.9 1011.7
14 16:53 Calm 10.00 Fair CLR 93.9 64.9 38% 96 29.91 1012.1
14 15:53 SE 5 10.00 Fair CLR 95 64 36% 97 29.92 1012.6
14 14:53 Vrbl 3 10.00 Fair CLR 93.9 64.9 38% 96 29.94 1013.2
14 13:53 Calm 10.00 A Few Clouds FEW055 93.9 66 40% 97 29.96 1013.7
14 12:53 Vrbl 5 10.00 A Few Clouds FEW050 91 66.9 91 75.9 45% 94 29.97 1014.2
14 11:53 Vrbl 3 10.00 A Few Clouds FEW045 90 68 48% 94 29.99 1014.7
14 10:53 Vrbl 6 10.00 A Few Clouds FEW040 FEW250 86 66.9 53% 89 30 1015.2
14 09:53 S 7 10.00 A Few Clouds FEW250 84.9 69.1 59% 89 30.01 1015.3
14 08:53 S 7 10.00 Fair CLR 82 68 63% 85 30.01 1015.3
14 07:53 S 12 10.00 A Few Clouds FEW250 79 66.9 67% 81 29.97 1014.2
14 06:53 SE 3 10.00 A Few Clouds FEW200 FEW250 75.9 68 81 75 77% 77 29.96 1013.9
14 05:53 E 3 10.00 A Few Clouds FEW250 75.9 68 77% 77 29.95 1013.5
14 04:53 E 5 10.00 A Few Clouds FEW250 75.9 69.1 79% 77 29.95 1013.6
14 03:53 NE 5 10.00 A Few Clouds FEW250 77 69.1 77% 79 29.96 1013.9
14 02:53 E 5 10.00 Fair CLR 78.1 69.1 74% 80 29.94 1013.1
14 01:53 E 6 10.00 Fair CLR 80.1 68 67% 83 29.95 1013.3
14 00:53 SE 5 10.00 Fair CLR 80.1 68 91.9 80.1 67% 83 29.95 1013.5
13 23:53 SE 6 10.00 Fair CLR 84 68 59% 87 29.95 1013.4
13 22:53 SE 7 10.00 Fair CLR 84.9 68 57% 88 29.93 1012.7
13 21:53 SE 9 10.00 Fair CLR 87.1 68 53% 91 29.9 1011.6
13 20:53 SE 8 10.00 Fair CLR 88 66.9 50% 91 29.88 1011.2
13 19:53 SE 8 10.00 Fair CLR 90 68 48% 94 29.89 1011.3
13 18:53 SE 5 10.00 Fair CLR 91.9 69.1 93.9 87.1 47% 97 29.89 1011.4
13 17:53 E 8 10.00 A Few Clouds FEW055 91.9 69.1 47% 97 29.9 1011.9
13 16:53 Vrbl 6 10.00 A Few Clouds FEW055 93 68 44% 97 29.92 1012.4
13 15:53 S 6 10.00 A Few Clouds FEW050 91.9 69.1 47% 97 29.93 1012.9
13 14:53 Vrbl 3 10.00 A Few Clouds FEW050 91 69.1 49% 96 29.95 1013.4
13 13:53 SW 5 10.00 Partly Cloudy SCT043 89.1 69.1 52% 94 29.97 1014.0
13 12:53 Calm 10.00 Partly Cloudy SCT038 89.1 70 89.1 75.9 53% 94 29.98 1014.4
13 11:53 Vrbl 7 10.00 Partly Cloudy SCT034 87.1 71.1 59% 93 29.99 1014.7
13 10:53 S 6 10.00 A Few Clouds FEW028 FEW200 84.9 70 61% 89 29.99 1014.7
13 09:53 S 7 10.00 A Few Clouds FEW200 82.9 69.1 63% 87 29.99 1014.7
13 08:53 S 8 10.00 A Few Clouds FEW200 80.1 69.1 69% 83 29.98 1014.5
13 07:53 Vrbl 5 10.00 Fair CLR 78.1 70 76% 80 29.96 1013.8
13 06:53 SE 5 10.00 Fair CLR 75.9 69.1 80.1 75 79% 77 29.95 1013.3
13 05:53 SE 3 10.00 Fair CLR 75 70 84% 75 29.93 1012.8
13 04:53 SE 6 10.00 Fair CLR 77 70 79% 79 29.92 1012.6
13 03:53 SE 6 10.00 Fair CLR 78.1 69.1 74% 80 29.92 1012.5
13 02:53 SE 8 10.00 Fair CLR 78.1 69.1 74% 80 29.93 1012.6
13 01:53 E 5 10.00 Fair CLR 78.1 69.1 74% 80 29.93 1012.9
13 00:53 E 3 10.00 Fair CLR 80.1 69.1 88 80.1 69% 83 29.94 1013.2
12 23:53 SE 5 10.00 Fair CLR 81 68 65% 84 29.95 1013.3
12 22:53 SE 6 10.00 Fair CLR 82 68 63% 85 29.94 1013.1
12 21:53 SE 10 10.00 Fair CLR 82.9 69.1 63% 87 29.93 1012.6
12 20:53 SE 9 10.00 Fair CLR 84.9 68 57% 88 29.91 1012.0
Date Time (cdt) Wind (mph) Vis. (mi.) Weather Sky Cond. Air Dwpt Max. Min. Relative Humidity Wind Chill (°F) Heat Index (°F) altimeter (in) sea level (mb) 1 hr 3 hr 6 hr
6 hour
Temperature (ºF) Pressure Precipitation (in)